Location: Unspecified
(0.0000°N, 0.0000°E)
Time: 09:50:50
(UTC+02:00)

ATLAS V CENTAUR R/B - Visible Passes

Search period start: 24 April 2014 00:00
Search period end: 04 May 2014 00:00
Orbit: 230 x 30985 km, 18.2° (Epoch: 23 April)

Date Brightness Start Highest point End Pass type
(mag) Time Alt. Az. Time Alt. Az. Time Alt. Az.
26 Apr 6.5 04:45:13 15° ESE 04:45:13 15° ESE 04:48:15 10° E visible
26 Apr 6.0 14:23:37 10° WNW 22:18:12 53° SSW 22:22:25 41° SSE visible
29 Apr 6.3 04:46:23 19° ESE 04:46:23 19° ESE 04:51:03 10° E visible
29 Apr 6.0 14:26:18 10° WNW 22:18:47 49° SSW 22:22:49 39° S visible
02 May 6.2 04:44:21 21° ESE 04:44:21 21° ESE 04:49:57 10° E visible
02 May 6.1 14:24:56 10° WNW 22:15:54 47° SSW 22:20:02 37° S visible
